Regional Weather Roundup
Issued by NWS

Home | Current Version | Previous Version | Graphics & Text | Print | Product List | Glossary Off
Versions: 1 2 3 4 5 6 7 8 9 10 11 12 13 14 15 16 17 18 19 20 21 22 23 24 25 26 27 28 29 30 31 32 33 34 35 36 37 38 39 40 41 42 43 44 45 46 47 48 49 50

000
ASUS43 KMKX 261600
RWRWI

WISCONSIN REGIONAL WEATHER ROUNDUP
NATIONAL WEATHER SERVICE MILWAUKEE/SULLIVAN WI
1000 AM CST WED NOV 26 2014

NOTE: "FAIR" INDICATES FEW OR NO CLOUDS BELOW 12,000 FEET WITH NO
SIGNIFICANT WEATHER AND/OR OBSTRUCTIONS TO VISIBILITY.

WIZ001-002-006>008-014>016-023>028-261700-
NORTHWEST WISCONSIN

CITY           SKY/WX    TMP DP  RH WIND       PRES   REMARKS
SUPERIOR ARPT  LGT SNOW  22  16  76 N3        30.21R
ASHLAND        LGT SNOW  21  18  88 SW3       30.19R FOG
HAYWARD        CLOUDY    21  16  81 N3        30.15R
SIREN          MOSUNNY   22  17  83 N5        30.18R WCI  15
CUMBERLAND     LGT SNOW  21  18  86 CALM      30.14R
RICE LAKE      CLOUDY    23  17  80 CALM      30.16R
CHETEK         CLOUDY    22  18  81 CALM      30.16R
LADYSMITH      CLOUDY    23  18  80 CALM      30.15R
EAU CLAIRE     CLOUDY    23  16  74 NE3       30.15R
MENOMONIE      CLOUDY    24  17  77 N3        30.15R
NEW RICHMOND   LGT SNOW  23  18  80 NE5       30.16R WCI  17
OSCEOLA        SNOW      23  23  98 N3        30.19R VSB 1/2
$$

WIZ003>005-009-010-017-018-261700-
NORTH CENTRAL WISCONSIN

CITY           SKY/WX    TMP DP  RH WIND       PRES   REMARKS
MANITOWISH WTR LGT SNOW  18  17  96 CALM      30.10S
ARBOR VITAE    CLOUDY    19  16  88 CALM      30.10S
WOODRUFF       CLOUDY    19  16  88 CALM      30.10S
RHINELANDER    CLOUDY    17  15  92 CALM      30.11R
EAGLE RIVER    CLOUDY    17  14  88 CALM      30.10S
LAND O LAKES   LGT SNOW  16  14  91 CALM      30.11R
PHILLIPS       CLOUDY    19  15  82 CALM      30.11R
TOMAHAWK       CLOUDY    17  15  89 CALM      30.12R
MEDFORD        CLOUDY    20  14  79 CALM      30.11R
MERRILL        CLOUDY    18  16  89 CALM      30.12S
$$

WIZ029-030-035-036-043>047-261700-
CENTRAL WISCONSIN

CITY           SKY/WX    TMP DP  RH WIND       PRES   REMARKS
WAUSAU         CLOUDY    19  17  92 CALM      30.12R
MOSINEE        CLOUDY    18  18 100 SE3       30.14R
MARSHFIELD     CLOUDY    20  14  77 E5        30.12R WCI  13
STEVENS POINT  CLOUDY    15  14  94 E5        30.14S WCI   8
WAUPACA        CLOUDY    19  16  89 CALM      30.18R FOG
WAUTOMA        NOT AVBL
WISC RAPIDS    CLOUDY    18  12  77 E5        30.15R WCI  11
CAMP DOUGLAS   NOT AVBL
$$

WIZ011>013-019>022-031-037>040-048>050-261700-
NORTHEAST WISCONSIN

CITY           SKY/WX    TMP DP  RH WIND       PRES   REMARKS
ANTIGO         CLOUDY    16  15  95 CALM      30.10S FOG
SHAWANO        CLOUDY    19  17  90 CALM      30.18S
OCONTO         CLOUDY    18  18  98 CALM      30.19R
STURGEON BAY   MOSUNNY   21  16  79 CALM      30.18S
GREEN BAY      CLOUDY    20  19  96 CALM      30.19R FOG
MANITOWOC      NOT AVBL
APPLETON       CLOUDY    19  18  93 CALM      30.17R
CLINTONVILLE   CLOUDY    19  18  93 CALM      30.17S FOG
OSHKOSH        CLOUDY    19  17  92 MISG      30.17S FOG
$$

WIZ032>034-041-042-053>061-261700-
SOUTHWEST WISCONSIN

CITY           SKY/WX    TMP DP  RH WIND       PRES   REMARKS
LA CROSSE      CLOUDY    23  16  74 E7        30.14R WCI  15
SPARTA         CLOUDY    21  17  83 CALM      30.14R
VIROQUA        PTSUNNY   19  17  93 E7        30.08S WCI   9
BOSCOBEL       PTSUNNY   20  16  84 NE6       30.14R WCI  12
PRAIRIE DU CHI CLOUDY    21  17  83 E3        30.11S
PLATTEVILLE    CLOUDY    19  18  95 E10       30.11S WCI   7
$$

WIZ056-057-062-063-064-067-068-261700-
SOUTH CENTRAL WISCONSIN

CITY           SKY/WX    TMP DP  RH WIND       PRES   REMARKS
REEDSBURG      MOSUNNY   14  12  92 CALM      30.13S
BARABOO/DELLS  MOSUNNY   16  14  92 CALM      30.12S FOG
LONE ROCK      CLOUDY    19  12  73 E7        30.15R WCI  10
MINERAL POINT  FOG       23  21  93 SE7       30.10R VSB 1   WCI  15
MADISON        CLOUDY    15  13  91 SE5       30.15R FOG     WCI   8
MIDDLETON      CLOUDY    20  17  91 SE3       30.14R
WATERTOWN      LGT SNOW  12  11  94 E3        30.16R
MONROE         CLOUDY    19  18  93 E3        30.12R FOG
JANESVILLE     CLOUDY    21  19  93 E5        30.14R FOG     WCI  15
$$

WIZ051-052-058>065-066-070>072-261700-
SOUTHEAST WISCONSIN

CITY           SKY/WX    TMP DP  RH WIND       PRES   REMARKS
MILWAUKEE      PTSUNNY   24  18  77 NW5       30.15S HAZE    WCI  18
WAUKESHA       MOSUNNY   18  16  93 CALM      30.15S FOG
MILWAUKEE/TIMM SUNNY     21  18  86 CALM      30.16  HAZE
RACINE         MOSUNNY   21  17  84 W6        30.17R FOG     WCI  13
BURLINGTON     PTSUNNY   18  17  95 CALM      30.15R FOG
KENOSHA        PTSUNNY   21  19  92 W5        30.15S FOG     WCI  15
FOND DU LAC    MOSUNNY   21  20  96 CALM      30.16F
SHEBOYGAN      CLOUDY    24  19  81 CALM      30.16S
WEST BEND      CLOUDY    23  19  86 CALM      30.15S
JUNEAU         MOSUNNY   17  15  92 CALM      30.16S FOG
$$

LSZ147-162-261700-
LAKE SUPERIOR

STATION/POSITION TIME  TEMP    WIND        PRES    WAVE
                       AIR SEA DIR/SP/G            HT/PER
                 (UTC) (F)     (DEG/KT/KT) (MB)    (FT/S)
DEVILS ISLAND    1500   25     350/  9/ 11 1022.5R
PORT WING        1500   21     170/  4/  5 1022.0
SAXON HARBOR     1500   21     200/  4/  5 1021.7
$$

LMZ867-665-643>646-261700-
LAKE MICHIGAN

STATION/POSITION TIME  TEMP    WIND        PRES    WAVE
                       AIR SEA DIR/SP/G            HT/PER
                 (UTC) (F)     (DEG/KT/KT) (MB)    (FT/S)
CHAMBERS ISLAND  1500   22     270/  4/  7 1022.0S
N MID LAKE BUOY  1450   28 42  320/  6/  8 1022.3R   1
NORTHPORT PIER   1508   25     300/  4/  8 1021.7S
SISTER BAY       1513             CALM       N/A
ALGOMA LAKESHORE 1343          330/  7/  8   N/A
KEWAUNEE LAKESHO 1500   21     310/  5/  8 1021.0R
SHEBOYGAN LAKESH 1500   22 37  300/  5/  6 1022.8R
PORT WASHINGTON  1500   23     260/  3/  6 1022.4R
MILWAUKEE LAKESH 1500   24     300/  3/  5   N/A
S MID LAKE BUOY  1450   31 42  160/ 12/ 16 1021.8S   1/ 3
KENOSHA   LAKESH 1500   20     270/  5/  8 1021.0F
$$

TC  - TEMPERATURE IN CELSIUS
VSB - VISIBILITY IN STATUTE MILES
WCI - WIND CHILL INDEX
HX  - HEAT INDEX




USA.gov is the U.S. government's official web portal to all federal, state and local government web resources and services.